Regional Weather Roundup
Issued by NWS

Home | Current Version | Previous Version | Graphics & Text | Print | Product List | Glossary On
Versions: 1 2 3 4 5 6 7 8 9 10 11 12 13 14 15 16 17 18 19 20 21 22 23 24 25 26 27 28 29 30 31 32 33 34 35 36 37 38 39 40 41 42 43 44 45 46 47 48 49 50
000
ASUS43 KLOT 101700
RWRIL

ILLINOIS REGIONAL WEATHER ROUNDUP
NATIONAL WEATHER SERVICE CHICAGO/ROMEOVILLE IL
1200 PM CDT THU JUL 10 2014

NOTE: "FAIR" INDICATES FEW OR NO CLOUDS BELOW 12,000 FEET WITH NO
SIGNIFICANT WEATHER AND/OR OBSTRUCTIONS TO VISIBILITY.

* THESE STATIONS ARE NOT UNDER NWS QUALITY CONTROL. THEY ALSO MAY NOT
  REPORT WEATHER SUCH AS PRECIPITATION OR FOG.

ILZ001-002-007-009-015-016-024-101800-
NORTHWEST ILLINOIS

CITY           SKY/WX    TMP DP  RH WIND       PRES   REMARKS
MOLINE         SUNNY     78  60  53 S6        30.15F
STERLING*      PTSUNNY   75  59  57 W6        30.18S
$$

ILZ003-004-008-010-011-017-018-101800-
NORTH CENTRAL ILLINOIS

CITY           SKY/WX    TMP DP  RH WIND       PRES   REMARKS
ROCKFORD       MOSUNNY   76  56  49 CALM      30.19F
$$

ILZ005-006-012>014-019>023-101800-
NORTHEAST ILLINOIS

CITY           SKY/WX    TMP DP  RH WIND       PRES   REMARKS
CHICAGO-OHARE  PTSUNNY   79  54  41 NE3       30.18S
CHICAGO-MIDWAY MOSUNNY   77  61  57 E9        30.19R
AURORA         SUNNY     75  51  43 CALM      30.20S
WAUKEGAN       SUNNY     69  58  67 E9        30.20R
DUPAGE AIRPORT PTSUNNY   78  53  41 S3        30.19R
WHEELING       MOSUNNY   74  58  57 E6        30.20S
NORTHERLY ISL    N/A     69  59  70 E7          N/A
$$

LMZ740>746-101800-
SOUTHERN LAKE MICHIGAN

STATION/POSITION SKY/WX   TEMP    WIND        PRES    VSBY  WAVE
                          AIR SEA DIR/SP/G                  HT/PER
                          (F)     (DEG/KT/KT) (MB)    (MI)  (FT/S)
SOUTHERN BUOY              58 57  110/  2/  4 1022.9R         0
WAUKEGAN HARBOR            65     130/  8/  9 1024.0R
HARRISON CRIB              65      90/  8/  9   N/A
BURNHAM HARBOR             69      70/  6/  7   N/A
CALUMET HARBOR             67      60/  9/ 10 1023.3R
MICHIGAN CITY              68      10/  7/  8   N/A
$$

ILZ025>027-034>036-040-047-049-050-058-095>099-101800-
WEST-CENTRAL ILLINOIS

CITY           SKY/WX    TMP DP  RH WIND       PRES   REMARKS
QUINCY         SUNNY     78  56  46 S9        30.16S
$$

ILZ028>032-037-038-041>044-048-051>054-059>061-101800-
CENTRAL ILLINOIS

CITY           SKY/WX    TMP DP  RH WIND       PRES   REMARKS
DECATUR        SUNNY     78  56  46 NE6       30.18S
PEORIA         SUNNY     79  59  50 E6        30.17F HX  80
SPRINGFIELD    SUNNY     80  58  46 E7        30.17S HX  80
TAYLORVILLE    NOT AVBL
$$

ILZ033-039-045-046-055>057-062-063-101800-
EAST-CENTRAL ILLINOIS

CITY           SKY/WX    TMP DP  RH WIND       PRES   REMARKS
CHAMPAIGN      MOSUNNY   77  54  44 NE8       30.18F
MATTOON        MOSUNNY   78  54  43 N8        30.17R
$$

ILZ079-100>102-101800-
SOUTHWEST ILLINOIS

CITY           SKY/WX    TMP DP  RH WIND       PRES   REMARKS
ALTON          MOSUNNY   79  59  50 E5        30.17S HX  80
BELLEVILLE     PTSUNNY   80  60  50 VRB7      30.15S HX  80
CAHOKIA*       PTSUNNY   81  59  47 SE6       30.16S HX  81
$$

ILZ064>066-069>071-074>076-080>082-084>086-088>090-092>094-101800-
SOUTH-CENTRAL ILLINOIS

CITY           SKY/WX    TMP DP  RH WIND       PRES   REMARKS
CARBONDALE     PTSUNNY   80  60  50 NE6       30.14S HX  81
MARION         MOSUNNY   81  61  50 NE6       30.15R HX  81
MT. VERNON     SUNNY     81  59  47 NE7       30.16S HX  81
$$

ILZ067-068-072-073-078-083-087-091-101800-
SOUTHEAST ILLINOIS

CITY           SKY/WX    TMP DP  RH WIND       PRES   REMARKS
$$

ABBREVIATIONS USED IN REMARKS
   TC - TEMPERATURE IN CELSIUS
  WCI - WIND CHILL INDEX
   HX - HEAT INDEX
  VSB - VISIBILITY
$$



USA.gov is the U.S. government's official web portal to all federal, state and local government web resources and services.